TimeCDT,TemperatureF,Dew PointF,Humidity,Sea Level PressureIn,VisibilityMPH,Wind Direction,Wind SpeedMPH,Gust SpeedMPH,PrecipitationIn,Events,Conditions,WindDirDegrees,DateUTC
12:53 AM,39.9,30.9,70,30.27,10.0,NNE,13.8,-,N/A,,Clear,20,2012-10-26 05:53:00
1:53 AM,39.0,30.0,70,30.28,10.0,North,11.5,-,N/A,,Clear,10,2012-10-26 06:53:00
2:53 AM,39.0,30.0,70,30.28,10.0,North,15.0,-,N/A,,Clear,10,2012-10-26 07:53:00
3:53 AM,37.9,30.0,73,30.29,10.0,North,17.3,25.3,N/A,,Clear,10,2012-10-26 08:53:00
4:53 AM,36.0,28.9,76,30.30,10.0,North,18.4,-,N/A,,Clear,10,2012-10-26 09:53:00
5:53 AM,34.0,28.9,82,30.33,10.0,North,19.6,-,N/A,,Clear,10,2012-10-26 10:53:00
6:53 AM,34.0,28.9,82,30.36,10.0,North,19.6,-,N/A,,Scattered Clouds,10,2012-10-26 11:53:00
8:53 AM,34.0,27.0,75,30.44,10.0,NNE,23.0,33.4,N/A,,Overcast,20,2012-10-26 13:53:00
9:53 AM,34.0,26.1,73,30.48,10.0,North,26.5,-,N/A,,Overcast,10,2012-10-26 14:53:00
10:53 AM,37.0,26.1,65,30.48,10.0,North,25.3,-,N/A,,Overcast,360,2012-10-26 15:53:00
11:53 AM,39.9,25.0,55,30.48,10.0,North,24.2,33.4,N/A,,Clear,10,2012-10-26 16:53:00
12:53 PM,43.0,25.0,49,30.46,10.0,North,24.2,32.2,N/A,,Clear,10,2012-10-26 17:53:00
1:53 PM,46.9,25.0,42,30.42,10.0,North,23.0,29.9,N/A,,Clear,10,2012-10-26 18:53:00
2:53 PM,48.9,23.0,36,30.40,10.0,NNE,20.7,26.5,N/A,,Clear,20,2012-10-26 19:53:00
3:53 PM,50.0,21.9,33,30.39,10.0,North,18.4,25.3,N/A,,Clear,10,2012-10-26 20:53:00
4:53 PM,50.0,21.9,33,30.38,10.0,North,18.4,-,N/A,,Clear,350,2012-10-26 21:53:00
5:53 PM,48.9,23.0,36,30.39,10.0,North,16.1,-,N/A,,Clear,360,2012-10-26 22:53:00
6:53 PM,44.1,23.0,43,30.40,10.0,NNE,11.5,21.9,N/A,,Clear,20,2012-10-26 23:53:00
7:53 PM,41.0,23.0,49,30.43,10.0,NNE,8.1,-,N/A,,Clear,20,2012-10-27 00:53:00
8:53 PM,37.0,21.9,54,30.43,10.0,North,9.2,-,N/A,,Clear,10,2012-10-27 01:53:00
9:53 PM,34.0,21.9,61,30.44,10.0,NNE,11.5,-,N/A,,Clear,20,2012-10-27 02:53:00
10:53 PM,34.0,21.9,61,30.43,10.0,North,11.5,-,N/A,,Clear,360,2012-10-27 03:53:00
11:53 PM,33.1,21.0,61,30.43,10.0,NNE,11.5,-,N/A,,Clear,20,2012-10-27 04:53:00